When you browse on this site, cookies collect data to enhance your experience and personalize the content and advertising you see.
Visit our Privacy Policy to learn more. By continuing to use the site, you agree to this use of cookies and data.
  • In Spain
  • List of Countries
  • For 7 days
  • Water Temperature
  • Satellite Maps
  • Weather Map
  • Weather Widgets
  • user-avatar
    Login

    Hourly Weather Naftalan

    Today, 23 May, Thursday

    Time Temperature Precipitation Wind Pressure Humidity
    00:00 +20°C° 0 mm 3 mps 763 mmHg 71%
    01:00 +20°C° 0 mm 3 mps 763 mmHg 71%
    02:00 +20°C° 0 mm 3 mps 762 mmHg 71%
    03:00 +20°C° 0 mm 2 mps 762 mmHg 71%
    04:00 +20°C° 0 mm 2 mps 763 mmHg 68%
    05:00 +21°C° 0 mm 2 mps 763 mmHg 65%
    06:00 +21°C° 0 mm 2 mps 763 mmHg 62%
    07:00 +24°C° 0 mm 2 mps 763 mmHg 56%
    08:00 +25°C° 0 mm 2 mps 763 mmHg 51%
    09:00 +27°C° 0 mm 1 mps 763 mmHg 45%
    10:00 +27°C° 0 mm 2 mps 762 mmHg 44%
    11:00 +28°C° 0 mm 3 mps 762 mmHg 42%
    12:00 +29°C° 0 mm 3 mps 761 mmHg 41%
    13:00 +29°C° 0 mm 4 mps 761 mmHg 42%
    14:00 +28°C° 0 mm 5 mps 760 mmHg 44%
    15:00 +28°C° 0 mm 6 mps 760 mmHg 46%
    16:00 +27°C° 0 mm 5 mps 760 mmHg 50%
    17:00 +27°C° 0 mm 5 mps 760 mmHg 54%
    18:00 +26°C° 0 mm 4 mps 760 mmHg 58%
    19:00 +25°C° 0.1 mm 4 mps 760 mmHg 64%
    20:00 +24°C° 0.1 mm 3 mps 761 mmHg 69%
    21:00 +22°C° 0.1 mm 3 mps 761 mmHg 74%
    22:00 +23°C° 0.1 mm 2 mps 761 mmHg 76%
    23:00 +23°C° 0.1 mm 2 mps 761 mmHg 77%

    Tomorrow, 24 May, Friday

    Time Temperature Precipitation Wind Pressure Humidity
    00:00 +21°C° 0.1 mm 2 mps 761 mmHg 78%
    01:00 +21°C° 0 mm 2 mps 761 mmHg 79%
    02:00 +21°C° 0 mm 2 mps 761 mmHg 80%
    03:00 +21°C° 0 mm 2 mps 761 mmHg 81%
    04:00 +21°C° 0 mm 2 mps 762 mmHg 78%
    05:00 +21°C° 0 mm 2 mps 762 mmHg 76%
    06:00 +22°C° 0 mm 3 mps 762 mmHg 73%
    07:00 +22°C° 0 mm 3 mps 763 mmHg 68%
    08:00 +24°C° 0 mm 3 mps 763 mmHg 63%
    09:00 +25°C° 0 mm 3 mps 763 mmHg 58%
    10:00 +26°C° 0 mm 4 mps 763 mmHg 57%
    11:00 +26°C° 0 mm 5 mps 763 mmHg 55%
    12:00 +27°C° 0 mm 5 mps 762 mmHg 54%
    13:00 +27°C° 0 mm 5 mps 762 mmHg 54%
    14:00 +27°C° 0 mm 5 mps 762 mmHg 54%
    15:00 +27°C° 0 mm 6 mps 762 mmHg 55%
    16:00 +26°C° 0 mm 6 mps 762 mmHg 59%
    17:00 +24°C° 0 mm 6 mps 762 mmHg 62%
    18:00 +24°C° 0 mm 6 mps 762 mmHg 66%
    19:00 +23°C° 0 mm 5 mps 762 mmHg 69%
    20:00 +23°C° 0 mm 4 mps 763 mmHg 72%
    21:00 +22°C° 0 mm 4 mps 764 mmHg 76%
    22:00 +22°C° 0.2 mm 3 mps 764 mmHg 77%
    23:00 +22°C° 0.2 mm 3 mps 764 mmHg 78%

    Day after tomorrow, 25 May, Saturday

    Time Temperature Precipitation Wind Pressure Humidity
    00:00 +22°C° 0.2 mm 3 mps 764 mmHg 79%
    01:00 +21°C° 0 mm 2 mps 763 mmHg 81%
    02:00 +21°C° 0 mm 2 mps 763 mmHg 84%
    03:00 +22°C° 0 mm 1 mps 763 mmHg 86%
    04:00 +21°C° 0 mm 2 mps 763 mmHg 84%
    05:00 +23°C° 0 mm 2 mps 763 mmHg 82%
    06:00 +23°C° 0 mm 2 mps 763 mmHg 80%
    07:00 +24°C° 0 mm 2 mps 763 mmHg 75%
    08:00 +25°C° 0 mm 3 mps 763 mmHg 70%
    09:00 +26°C° 0 mm 3 mps 763 mmHg 65%
    10:00 +27°C° 0 mm 4 mps 762 mmHg 62%
    11:00 +28°C° 0 mm 4 mps 762 mmHg 59%
    12:00 +28°C° 0 mm 4 mps 761 mmHg 56%
    13:00 +28°C° 0 mm 5 mps 761 mmHg 55%
    14:00 +28°C° 0 mm 5 mps 760 mmHg 55%
    15:00 +28°C° 0 mm 6 mps 760 mmHg 55%
    16:00 +27°C° 0 mm 6 mps 760 mmHg 58%
    17:00 +27°C° 0 mm 6 mps 759 mmHg 62%
    18:00 +26°C° 0 mm 6 mps 759 mmHg 65%
    19:00 +26°C° 0 mm 5 mps 759 mmHg 68%
    20:00 +25°C° 0 mm 4 mps 759 mmHg 71%
    21:00 +25°C° 0 mm 3 mps 759 mmHg 73%
    22:00 +25°C° 0 mm 3 mps 759 mmHg 74%
    23:00 +24°C° 0 mm 2 mps 759 mmHg 75%

    26 May, Sunday

    Time Temperature Precipitation Wind Pressure Humidity
    00:00 +24°C° 0 mm 2 mps 759 mmHg 76%
    01:00 +24°C° 0 mm 2 mps 759 mmHg 77%
    02:00 +24°C° 0 mm 2 mps 758 mmHg 78%
    03:00 +24°C° 0 mm 1 mps 758 mmHg 78%
    04:00 +24°C° 0 mm 2 mps 759 mmHg 78%
    05:00 +24°C° 0 mm 2 mps 759 mmHg 77%
    06:00 +25°C° 0 mm 2 mps 759 mmHg 77%
    07:00 +27°C° 0 mm 2 mps 759 mmHg 68%
    08:00 +29°C° 0 mm 3 mps 760 mmHg 60%
    09:00 +32°C° 0 mm 4 mps 760 mmHg 51%
    10:00 +33°C° 0 mm 4 mps 760 mmHg 46%
    11:00 +34°C° 0 mm 4 mps 759 mmHg 41%
    12:00 +35°C° 0 mm 4 mps 759 mmHg 36%
    13:00 +33°C° 0 mm 6 mps 759 mmHg 42%
    14:00 +32°C° 0 mm 8 mps 759 mmHg 47%
    15:00 +29°C° 0 mm 9 mps 759 mmHg 53%
    16:00 +28°C° 0 mm 8 mps 759 mmHg 55%
    17:00 +28°C° 0 mm 7 mps 759 mmHg 58%
    18:00 +27°C° 0 mm 7 mps 759 mmHg 60%
    19:00 +26°C° 0 mm 6 mps 760 mmHg 64%
    20:00 +24°C° 0 mm 6 mps 760 mmHg 67%
    21:00 +23°C° 0 mm 5 mps 761 mmHg 70%
    22:00 +23°C° 0.2 mm 4 mps 761 mmHg 73%
    23:00 +24°C° 0.2 mm 3 mps 761 mmHg 76%

    27 May, Monday

    Time Temperature Precipitation Wind Pressure Humidity
    00:00 +23°C° 0.2 mm 2 mps 760 mmHg 79%
    01:00 +23°C° 0 mm 2 mps 761 mmHg 79%
    02:00 +23°C° 0 mm 2 mps 761 mmHg 79%
    03:00 +23°C° 0 mm 2 mps 761 mmHg 79%
    04:00 +23°C° 0 mm 2 mps 762 mmHg 76%
    05:00 +24°C° 0 mm 3 mps 763 mmHg 73%
    06:00 +23°C° 0 mm 4 mps 763 mmHg 69%
    07:00 +26°C° 0 mm 3 mps 763 mmHg 62%
    08:00 +27°C° 0 mm 3 mps 763 mmHg 55%
    09:00 +29°C° 0 mm 3 mps 764 mmHg 47%
    10:00 +30°C° 0 mm 3 mps 764 mmHg 45%
    11:00 +30°C° 0 mm 4 mps 763 mmHg 43%
    12:00 +32°C° 0 mm 4 mps 763 mmHg 40%
    13:00 +32°C° 0 mm 5 mps 763 mmHg 41%
    14:00 +30°C° 0 mm 6 mps 763 mmHg 42%
    15:00 +30°C° 0 mm 7 mps 763 mmHg 43%
    16:00 +29°C° 0.2 mm 6 mps 764 mmHg 47%
    17:00 +28°C° 0.2 mm 5 mps 764 mmHg 51%
    18:00 +27°C° 0.2 mm 4 mps 764 mmHg 56%
    19:00 +26°C° 0 mm 3 mps 765 mmHg 59%
    20:00 +25°C° 0 mm 2 mps 766 mmHg 62%
    21:00 +25°C° 0 mm 2 mps 766 mmHg 65%
    22:00 +25°C° 0 mm 2 mps 766 mmHg 65%
    23:00 +24°C° 0 mm 1 mps 766 mmHg 66%

    28 May, Tuesday

    Time Temperature Precipitation Wind Pressure Humidity
    00:00 +24°C° 0 mm 1 mps 766 mmHg 66%
    01:00 +24°C° 0 mm 1 mps 766 mmHg 67%
    02:00 +23°C° 0 mm 1 mps 767 mmHg 67%
    03:00 +23°C° 0 mm 1 mps 767 mmHg 68%
    04:00 +23°C° 0 mm 1 mps 767 mmHg 65%
    05:00 +24°C° 0 mm 1 mps 768 mmHg 62%
    06:00 +25°C° 0 mm 1 mps 768 mmHg 60%
    07:00 +26°C° 0 mm 1 mps 768 mmHg 54%
    08:00 +27°C° 0 mm 1 mps 768 mmHg 49%
    09:00 +28°C° 0 mm 1 mps 768 mmHg 44%
    10:00 +29°C° 0 mm 2 mps 768 mmHg 40%
    11:00 +30°C° 0 mm 2 mps 768 mmHg 37%
    12:00 +31°C° 0 mm 3 mps 767 mmHg 33%
    13:00 +32°C° 0 mm 4 mps 767 mmHg 34%
    14:00 +30°C° 0 mm 4 mps 767 mmHg 36%
    15:00 +30°C° 0 mm 5 mps 766 mmHg 37%
    16:00 +29°C° 0 mm 5 mps 766 mmHg 41%
    17:00 +28°C° 0 mm 5 mps 766 mmHg 46%
    18:00 +27°C° 0 mm 4 mps 766 mmHg 50%
    19:00 +26°C° 0 mm 4 mps 767 mmHg 55%
    20:00 +25°C° 0 mm 4 mps 767 mmHg 59%
    21:00 +24°C° 0 mm 3 mps 767 mmHg 64%
    22:00 +24°C° 0 mm 3 mps 767 mmHg 65%
    23:00 +24°C° 0 mm 3 mps 767 mmHg 66%
    Show more